2023/08/03 00:00:00, 0.1,22.1
2023/08/03 00:10:00, 0.0,21.9
2023/08/03 00:20:00, 0.1,22.2
2023/08/03 00:30:00, 0.1,21.8
2023/08/03 00:40:00, 2.0,21.9
2023/08/03 00:50:00, 6.3,21.9
2023/08/03 01:00:00, 5.8,21.9
2023/08/03 01:10:00, 5.5,21.6
2023/08/03 01:20:00, 5.5,21.7
2023/08/03 01:30:00, 5.6,21.5
2023/08/03 01:40:00, 5.3,21.6
2023/08/03 01:50:00, 6.0,21.5
2023/08/03 02:00:00, 1.6,21.5
2023/08/03 02:10:00, 0.1,21.3
2023/08/03 02:20:00, 0.2,21.0
2023/08/03 02:30:00, 0.1,21.1
2023/08/03 02:40:00, 0.1,21.5
2023/08/03 02:50:00, 0.1,21.3
2023/08/03 03:00:00, 0.0,21.3
2023/08/03 03:10:00, 0.0,21.4
2023/08/03 03:20:00, 0.0,21.6
2023/08/03 03:30:00, 1.8,21.5
2023/08/03 03:40:00, 5.7,21.5
2023/08/03 03:50:00, 4.8,21.4
2023/08/03 04:00:00, 5.0,21.4
2023/08/03 04:10:00, 5.0,21.2
2023/08/03 04:20:00, 4.8,21.4
2023/08/03 04:30:00, 4.9,21.2
2023/08/03 04:40:00, 5.3,21.2
2023/08/03 04:50:00, 4.5,21.0
2023/08/03 05:00:00, 2.4,21.2
2023/08/03 05:10:00, 3.9,21.0
2023/08/03 05:20:00, 2.5,21.0
2023/08/03 05:30:00, 0.0,21.0
2023/08/03 05:40:00, 0.0,20.9
2023/08/03 05:50:00, 0.0,21.1
2023/08/03 06:00:00, 0.0,21.3
2023/08/03 06:10:00, 3.1,21.6
2023/08/03 06:20:00, 8.5,21.4
2023/08/03 06:30:00, 6.0,21.9
2023/08/03 06:40:00, 8.0,21.7
2023/08/03 06:50:00, 0.1,24.7
2023/08/03 07:00:00, 0.1,27.9
2023/08/03 07:10:00, 0.0,26.8
2023/08/03 07:20:00, 0.0,30.9
2023/08/03 07:30:00, 0.0,31.9
2023/08/03 07:40:00, 0.0,32.6
2023/08/03 07:50:00, 0.0,34.4
2023/08/03 08:00:00, 0.1,34.4
2023/08/03 08:10:00, 0.1,35.2
2023/08/03 08:20:00, 0.1,34.0
2023/08/03 08:30:00, 0.1,33.7
2023/08/03 08:40:00, 0.1,34.8
2023/08/03 08:50:00, 0.2,33.6
2023/08/03 09:00:00, 0.2,33.8
2023/08/03 09:10:00, 2.2,32.8
2023/08/03 09:20:00,---,32.0
2023/08/03 09:30:00,35.3,31.4
2023/08/03 09:40:00,25.3,29.8
2023/08/03 09:50:00, 1.2,30.9
2023/08/03 10:00:00, 0.7,31.2
2023/08/03 10:10:00, 0.2,30.6
2023/08/03 10:20:00, 0.2,30.0
2023/08/03 10:30:00, 0.1,29.7
2023/08/03 10:40:00, 0.1,29.3
2023/08/03 10:50:00, 0.1,28.9
2023/08/03 11:00:00, 0.1,29.7
2023/08/03 11:10:00, 2.3,30.1
2023/08/03 11:20:00, 3.9,30.7
2023/08/03 11:30:00, 3.4,30.0
2023/08/03 11:40:00, 0.2,31.2
2023/08/03 11:50:00, 0.2,30.3
2023/08/03 12:00:00, 0.2,30.2
2023/08/03 12:10:00, 0.2,31.4
2023/08/03 12:20:00, 0.2,29.0
2023/08/03 12:30:00, 0.2,30.1
2023/08/03 12:40:00, 0.1,30.9
2023/08/03 12:50:00,---,31.4
2023/08/03 13:00:00, 0.2,31.1
2023/08/03 13:10:00, 1.3,30.9
2023/08/03 13:20:00, 0.2,29.0
2023/08/03 13:30:00, 0.2,30.3
2023/08/03 13:40:00, 0.2,31.4
2023/08/03 13:50:00, 0.2,30.2
2023/08/03 14:00:00, 0.2,30.2
2023/08/03 14:10:00, 2.7,28.5
2023/08/03 14:20:00, 7.1,29.6
2023/08/03 14:30:00, 8.0,31.2
2023/08/03 14:40:00, 2.6,31.2
2023/08/03 14:50:00, 0.2,30.9
2023/08/03 15:00:00, 0.2,29.6
2023/08/03 15:10:00, 0.1,29.4
2023/08/03 15:20:00, 0.1,29.7
2023/08/03 15:30:00, 2.2,29.7
2023/08/03 15:40:00, 0.5,29.0
2023/08/03 15:50:00, 5.7,29.4
2023/08/03 16:00:00, 6.8,29.1
2023/08/03 16:10:00, 3.1,28.1
2023/08/03 16:20:00, 4.5,27.4
2023/08/03 16:30:00, 0.0,27.3
2023/08/03 16:40:00, 0.0,27.3
2023/08/03 16:50:00, 0.0,26.9
2023/08/03 17:00:00, 3.2,26.4
2023/08/03 17:10:00, 4.8,26.5
2023/08/03 17:20:00, 4.2,25.9
2023/08/03 17:30:00, 3.1,26.0
2023/08/03 17:40:00, 1.8,26.2
2023/08/03 17:50:00, 0.7,26.1
2023/08/03 18:00:00, 0.4,26.2
2023/08/03 18:10:00, 0.4,25.9
2023/08/03 18:20:00, 0.3,25.8
2023/08/03 18:30:00, 0.3,25.4
2023/08/03 18:40:00, 0.3,25.1
2023/08/03 18:50:00, 0.2,24.8
2023/08/03 19:00:00, 0.3,24.5
2023/08/03 19:10:00, 0.2,24.4
2023/08/03 19:20:00, 0.2,24.0
2023/08/03 19:30:00, 0.2,24.0
2023/08/03 19:40:00, 0.2,23.8
2023/08/03 19:50:00, 0.2,23.7
2023/08/03 20:00:00, 0.2,23.8
2023/08/03 20:10:00, 0.2,23.8
2023/08/03 20:20:00, 0.1,23.7
2023/08/03 20:30:00, 0.0,23.6
2023/08/03 20:40:00, 0.0,23.7
2023/08/03 20:50:00, 0.0,23.6
2023/08/03 21:00:00, 0.0,23.3
2023/08/03 21:10:00, 0.0,23.3
2023/08/03 21:20:00, 0.0,23.3
2023/08/03 21:30:00, 0.0,23.0
2023/08/03 21:40:00, 0.0,23.3
2023/08/03 21:50:00, 0.0,22.9
2023/08/03 22:00:00, 0.0,23.0
2023/08/03 22:10:00, 0.0,22.9
2023/08/03 22:20:00, 0.0,22.9
2023/08/03 22:30:00, 0.0,22.7
2023/08/03 22:40:00, 0.0,22.7
2023/08/03 22:50:00, 0.0,22.7
2023/08/03 23:00:00, 0.0,23.0
2023/08/03 23:10:00, 0.0,23.1
2023/08/03 23:20:00, 0.0,23.1
2023/08/03 23:30:00, 0.0,23.0
2023/08/03 23:40:00, 0.0,23.0
2023/08/03 23:50:00, 0.0,23.0
